EW2642 Weather Reports


time (UTC)temp
C
wind
direction
speed
KPH
gust
KPH
rain 1hr
cm
rain 24hr
cm
rain mn
cm
humidity
%
barometer
mb
20260902103021 18 133 6.4 12.9 0.00 0.00 0.00 81 852.2
20260902101523 18 132 6.4 12.9 0.00 0.00 0.00 80 852.3
20260902100023 18 115 9.7 14.5 0.00 0.00 0.00 80 852.4
20260902094526 18 130 6.4 14.5 0.00 0.00 0.00 79 852.5
20260902093026 18 131 6.4 14.5 0.00 0.00 0.00 76 852.4
20260902091527 19 152 6.4 16.1 0.00 0.00 0.00 74 852.5
20260902090028 19 130 12.9 24.1 0.00 0.00 0.00 72 852.4
20260902084530 18 144 4.8 11.3 0.00 0.00 0.00 73 852.6
20260902083028 18 141 6.4 12.9 0.00 0.00 0.00 73 852.5
20260902081529 18 150 6.4 11.3 0.00 0.00 0.00 74 852.5
20260902080026 18 136 8.0 12.9 0.00 0.00 0.00 74 852.5
20260902074527 18 137 4.8 8.0 0.00 0.00 0.00 74 852.4
20260902073004 18 128 6.4 11.3 0.00 0.00 0.00 74 852.4
20260902071504 18 128 6.4 11.3 0.00 0.00 0.00 75 852.4
20260902070007 18 140 6.4 9.7 0.00 0.00 0.00 75 852.5
20260902064528 18 143 4.8 11.3 0.00 0.00 0.00 76 852.6
20260902063053 17 157 3.2 6.4 0.00 0.00 0.00 77 852.6
20260902061531 17 158 1.6 6.4 0.00 0.00 0.00 77 852.6
20260902060028 17 159 1.6 6.4 0.00 0.00 0.00 76 852.7
20260902054533 17 146 3.2 6.4 0.00 0.00 0.00 75 852.7
20260902053031 17 144 3.2 8.0 0.00 0.00 0.00 74 852.7
20260902051537 18 153 3.2 9.7 0.00 0.00 0.00 72 852.8
20260902050031 18 138 1.6 4.8 0.00 0.00 0.00 70 852.8
20260902044531 19 136 3.2 4.8 0.00 0.00 0.00 69 852.7
20260902043031 20 123 3.2 4.8 0.00 0.00 0.00 66 852.6
20260902041544 21 202 1.6 3.2 0.00 0.00 0.00 64 852.6
20260902040029 21 217 0.0 3.2 0.00 0.00 0.00 62 852.5
20260902034530 22 185 1.6 8.0 0.00 0.00 0.00 57 852.4
20260902033027 22 198 4.8 9.7 0.00 0.00 0.00 57 852.2
20260902031527 22 202 8.0 12.9 0.00 0.00 0.00 56 852.1
20260902030029 22 176 4.8 14.5 0.00 0.00 0.00 54 851.9
20260902024529 22 183 6.4 14.5 0.00 0.00 0.00 52 851.6
20260902023026 22 205 4.8 9.7 0.00 0.00 0.00 51 851.7
20260902021527 23 219 4.8 11.3 0.00 0.00 0.00 49 851.6
20260902020032 24 226 4.8 16.1 0.00 0.00 0.00 45 851.5
20260902014533 25 229 6.4 12.9 0.00 0.00 0.00 42 851.3
20260902013029 26 232 8.0 14.5 0.00 0.00 0.00 40 851.5
20260902011530 26 237 6.4 16.1 0.00 0.00 0.00 40 851.4
20260902010035 27 221 9.7 24.1 0.00 0.00 0.00 39 851.5
20260902004534 27 209 9.7 19.3 0.00 0.00 0.00 40 851.4
20260902003107 27 256 14.5 29.0 0.00 0.00 0.00 37 851.4
20260902001530 28 254 12.9 25.7 0.00 0.00 0.00 37 851.5
20260902000035 28 255 16.1 25.7 0.00 0.00 0.00 35 851.5
20260901234532 27 230 16.1 25.7 0.00 0.00 0.00 35 851.5
20260901233033 27 176 12.9 33.8 0.00 0.00 0.00 37 851.6
20260901231527 27 201 17.7 24.1 0.00 0.00 0.00 39 851.5
20260901230029 28 191 11.3 30.6 0.00 0.00 0.00 36 851.5
20260901224530 28 195 14.5 30.6 0.00 0.00 0.00 35 851.5
20260901223031 28 163 22.5 33.8 0.00 0.00 0.00 34 851.5